リニア彗星

P/2002 T5 ( LINEAR )

English version
Home page
Updated on January 20, 2013

---------------------------------------------------------------------

・ プロフィール

発見日 2002年10月5日
発見光度 18.4等
発見者 Lincoln Laboratory Near-Earth Asteroid Research project

・ 軌道要素

Epoch 2003 June 10.0 TT = JDT 2452800.5
T 2003 June 27.86699 TT                                 MPC
q   3.9340866            (2000.0)            P               Q
n   0.05339511     Peri.  326.76069     -0.06662709     -0.90078360
a   6.9844957      Node   123.33129     +0.99023350     -0.11248414
e   0.4367401      Incl.   30.90473     +0.12246818     +0.41944752
P  18.5
From 941 observations 2002 Oct. 5-2005 Apr. 5, mean residual 0".6.

・ 星図

・ 光度変化

        m1 = 8.0 + 5 logΔ + 10.0 log r

---------------------------------------------------------------------

軌道要素はM.P.E.C. 2013-A29に掲載されたものです。
星図は StellaNavigator Ver.2.0 for Windows (アストロアーツ 編著 / アスキー出版局刊) で作成したものです。
光度グラフはComet for Windowsで作成したものです。

---------------------------------------------------------------------

Copyright(C) Seiichi Yoshida (comet@aerith.net). All rights reserved.